Time,TemperatureF,DewpointF,PressureIn,WindDirection,WindDirectionDegrees,WindSpeedMPH,WindSpeedGustMPH,Humidity,HourlyPrecipIn,Conditions,Clouds,dailyrainin,SoftwareType,DateUTC
2013-04-15 00:03:00,60.0,32.0,-100.00,ENE,70,4.0,12.0,37,0.00,,,-99.99,,2013-04-15 04:03:00,
2013-04-15 00:13:00,59.0,32.0,-100.00,ENE,62,4.0,12.0,36,0.00,,,-99.99,,2013-04-15 04:13:00,
2013-04-15 00:23:00,59.0,32.0,-100.00,ENE,72,3.0,12.0,37,0.00,,,-99.99,,2013-04-15 04:23:00,
2013-04-15 00:33:00,58.0,32.0,-100.00,ENE,60,4.0,12.0,37,0.00,,,-99.99,,2013-04-15 04:33:00,
2013-04-15 00:43:00,59.0,32.0,-100.00,East,81,2.0,12.0,37,0.00,,,-99.99,,2013-04-15 04:43:00,
2013-04-15 00:52:00,58.0,32.0,-100.00,ENE,70,2.0,12.0,37,0.00,,,-99.99,,2013-04-15 04:52:00,
2013-04-15 01:03:00,59.0,32.0,-100.00,East,81,2.0,12.0,36,0.00,,,-99.99,,2013-04-15 05:03:00,
2013-04-15 01:13:00,58.0,32.0,-100.00,ENE,72,2.0,12.0,37,0.00,,,-99.99,,2013-04-15 05:13:00,
2013-04-15 01:23:00,58.0,32.0,-100.00,East,79,2.0,2.0,37,0.00,,,-99.99,,2013-04-15 05:23:00,
2013-04-15 01:33:00,58.0,32.0,-100.00,ENE,72,1.0,2.0,38,0.00,,,-99.99,,2013-04-15 05:33:00,
2013-04-15 01:42:00,58.0,32.0,-100.00,East,81,2.0,2.0,38,0.00,,,-99.99,,2013-04-15 05:42:00,
2013-04-15 01:52:00,58.0,32.0,-100.00,ENE,70,1.0,2.0,38,0.00,,,-99.99,,2013-04-15 05:52:00,
2013-04-15 02:02:00,57.0,32.0,-100.00,ENE,60,2.0,2.0,38,0.00,,,-99.99,,2013-04-15 06:02:00,
2013-04-15 02:12:00,57.0,32.0,-100.00,ENE,70,2.0,2.0,40,0.00,,,-99.99,,2013-04-15 06:12:00,
2013-04-15 02:23:00,58.0,32.0,-100.00,ENE,72,1.0,2.0,38,0.00,,,-99.99,,2013-04-15 06:23:00,
2013-04-15 02:33:00,58.0,32.0,-100.00,ENE,70,0.0,2.0,38,0.00,,,-99.99,,2013-04-15 06:33:00,
2013-04-15 02:42:00,59.0,32.0,-100.00,ENE,70,0.0,2.0,37,0.00,,,-99.99,,2013-04-15 06:42:00,
2013-04-15 02:52:00,58.0,32.0,-100.00,East,81,0.0,2.0,38,0.00,,,-99.99,,2013-04-15 06:52:00,
2013-04-15 03:03:00,58.0,32.0,-100.00,ENE,70,0.0,2.0,40,0.00,,,-99.99,,2013-04-15 07:03:00,
2013-04-15 03:41:00,58.0,34.0,-100.00,ENE,77,2.0,2.0,41,0.00,,,-99.99,,2013-04-15 07:41:00,
2013-04-15 03:42:00,57.0,32.0,-100.00,ENE,60,2.0,2.0,38,0.00,,,-99.99,,2013-04-15 07:42:00,
2013-04-15 03:53:00,58.0,34.0,-100.00,ENE,72,1.0,2.0,40,0.00,,,-99.99,,2013-04-15 07:53:00,
2013-04-15 04:03:00,58.0,32.0,-100.00,ENE,72,0.0,2.0,40,0.00,,,-99.99,,2013-04-15 08:03:00,
2013-04-15 04:14:00,59.0,34.0,-100.00,ENE,62,2.0,4.0,40,0.00,,,-99.99,,2013-04-15 08:14:00,
2013-04-15 04:22:00,59.0,34.0,-100.00,ENE,70,2.0,4.0,40,0.00,,,-99.99,,2013-04-15 08:22:00,
2013-04-15 04:34:00,60.0,36.0,-100.00,ENE,60,2.0,4.0,41,0.00,,,-99.99,,2013-04-15 08:34:00,
2013-04-15 04:43:00,60.0,36.0,-100.00,ENE,70,2.0,4.0,41,0.00,,,-99.99,,2013-04-15 08:43:00,
2013-04-15 04:52:00,59.0,36.0,-100.00,ENE,70,1.0,4.0,42,0.00,,,-99.99,,2013-04-15 08:52:00,
2013-04-15 05:03:00,59.0,36.0,-100.00,ENE,62,2.0,4.0,44,0.00,,,-99.99,,2013-04-15 09:03:00,
2013-04-15 05:13:00,59.0,37.0,-100.00,ENE,66,2.0,4.0,45,0.00,,,-99.99,,2013-04-15 09:13:00,
2013-04-15 05:23:00,58.0,37.0,-100.00,ENE,70,1.0,4.0,46,0.00,,,-99.99,,2013-04-15 09:23:00,
2013-04-15 05:33:00,58.0,37.0,-100.00,ENE,76,1.0,4.0,46,0.00,,,-99.99,,2013-04-15 09:33:00,
2013-04-15 05:43:00,58.0,37.0,-100.00,ENE,60,1.0,4.0,46,0.00,,,-99.99,,2013-04-15 09:43:00,
2013-04-15 05:53:00,58.0,39.0,-100.00,East,79,1.0,4.0,49,0.00,,,-99.99,,2013-04-15 09:53:00,
2013-04-15 06:03:00,59.0,39.0,-100.00,ENE,72,1.0,4.0,51,0.00,,,-99.99,,2013-04-15 10:03:00,
2013-04-15 06:13:00,58.0,39.0,-100.00,ENE,60,1.0,4.0,51,0.00,,,-99.99,,2013-04-15 10:13:00,
2013-04-15 06:23:00,57.0,39.0,-100.00,ENE,72,0.0,4.0,53,0.00,,,-99.99,,2013-04-15 10:23:00,
2013-04-15 06:33:00,56.0,39.0,-100.00,ENE,72,0.0,4.0,54,0.00,,,-99.99,,2013-04-15 10:33:00,
2013-04-15 06:42:00,57.0,39.0,-100.00,ENE,72,0.0,4.0,54,0.00,,,-99.99,,2013-04-15 10:42:00,
2013-04-15 06:52:00,57.0,39.0,-100.00,ENE,70,1.0,4.0,55,0.00,,,-99.99,,2013-04-15 10:52:00,
2013-04-15 07:03:00,56.0,39.0,-100.00,ENE,72,0.0,4.0,56,0.00,,,-99.99,,2013-04-15 11:03:00,
2013-04-15 07:13:00,56.0,39.0,-100.00,East,81,0.0,4.0,56,0.00,,,-99.99,,2013-04-15 11:13:00,
2013-04-15 07:23:00,56.0,41.0,-100.00,ENE,72,0.0,4.0,58,0.00,,,-99.99,,2013-04-15 11:23:00,
2013-04-15 07:32:00,56.0,41.0,-100.00,ENE,72,0.0,4.0,59,0.00,,,-99.99,,2013-04-15 11:32:00,
2013-04-15 07:43:00,56.0,41.0,-100.00,ENE,72,0.0,4.0,59,0.00,,,-99.99,,2013-04-15 11:43:00,
2013-04-15 07:53:00,56.0,41.0,-100.00,ENE,72,0.0,4.0,58,0.00,,,-99.99,,2013-04-15 11:53:00,
2013-04-15 08:04:00,55.0,39.0,-100.00,ENE,72,0.0,4.0,58,0.00,,,-99.99,,2013-04-15 12:04:00,
2013-04-15 08:14:00,56.0,41.0,-100.00,ENE,72,1.0,4.0,58,0.00,,,-99.99,,2013-04-15 12:14:00,
2013-04-15 08:23:00,57.0,41.0,-100.00,ENE,70,2.0,4.0,58,0.00,,,-99.99,,2013-04-15 12:23:00,
2013-04-15 08:43:00,58.0,43.0,-100.00,ENE,70,4.0,4.0,58,0.00,,,-99.99,,2013-04-15 12:43:00,
2013-04-15 08:53:00,58.0,43.0,-100.00,ENE,72,4.0,6.0,58,0.00,,,-99.99,,2013-04-15 12:53:00,
2013-04-15 09:04:00,58.0,43.0,-100.00,East,81,4.0,6.0,58,0.00,,,-99.99,,2013-04-15 13:04:00,
2013-04-15 09:13:00,58.0,43.0,-100.00,ENE,72,2.0,6.0,58,0.00,,,-99.99,,2013-04-15 13:13:00,
2013-04-15 09:23:00,58.0,43.0,-100.00,ENE,70,2.0,6.0,58,0.00,,,-99.99,,2013-04-15 13:23:00,
2013-04-15 09:34:00,60.0,43.0,-100.00,ENE,70,4.0,8.0,55,0.00,,,-99.99,,2013-04-15 13:34:00,
2013-04-15 09:43:00,58.0,43.0,-100.00,East,81,4.0,8.0,59,0.00,,,-99.99,,2013-04-15 13:43:00,
2013-04-15 09:53:00,58.0,43.0,-100.00,ENE,60,2.0,8.0,60,0.00,,,-99.99,,2013-04-15 13:53:00,
2013-04-15 10:05:00,58.0,45.0,-100.00,ENE,70,2.0,8.0,62,0.00,,,-99.99,,2013-04-15 14:05:00,
2013-04-15 10:13:00,58.0,45.0,-100.00,ENE,62,4.0,8.0,62,0.00,,,-99.99,,2013-04-15 14:13:00,
2013-04-15 10:23:00,58.0,45.0,-100.00,ENE,70,5.0,8.0,62,0.00,,,-99.99,,2013-04-15 14:23:00,
2013-04-15 10:34:00,58.0,45.0,-100.00,ENE,70,3.0,8.0,62,0.00,,,-99.99,,2013-04-15 14:34:00,
2013-04-15 10:44:00,59.0,45.0,-100.00,ENE,64,4.0,8.0,62,0.00,,,-99.99,,2013-04-15 14:44:00,
2013-04-15 10:54:00,61.0,45.0,-100.00,ENE,72,3.0,8.0,58,0.00,,,-99.99,,2013-04-15 14:54:00,
2013-04-15 11:04:00,61.0,45.0,-100.00,ENE,70,3.0,8.0,58,0.00,,,-99.99,,2013-04-15 15:04:00,
2013-04-15 11:13:00,63.0,48.0,-100.00,ENE,67,5.0,8.0,59,0.00,,,-99.99,,2013-04-15 15:13:00,
2013-04-15 11:24:00,60.0,45.0,-100.00,ENE,62,6.0,8.0,60,0.00,,,-99.99,,2013-04-15 15:24:00,
2013-04-15 11:35:00,61.0,46.0,-100.00,ENE,74,5.0,8.0,60,0.00,,,-99.99,,2013-04-15 15:35:00,
2013-04-15 11:44:00,60.0,45.0,-100.00,ENE,72,3.0,8.0,60,0.00,,,-99.99,,2013-04-15 15:44:00,
2013-04-15 11:54:00,62.0,46.0,-100.00,ENE,62,2.0,8.0,58,0.00,,,-99.99,,2013-04-15 15:54:00,
2013-04-15 12:05:00,62.0,46.0,-100.00,East,81,2.0,8.0,58,0.00,,,-99.99,,2013-04-15 16:05:00,
2013-04-15 12:14:00,63.0,46.0,-100.00,East,83,4.0,8.0,55,0.00,,,-99.99,,2013-04-15 16:14:00,
2013-04-15 12:34:00,64.0,46.0,-100.00,ENE,74,4.0,8.0,54,0.00,,,-99.99,,2013-04-15 16:34:00,
2013-04-15 12:44:00,64.0,46.0,-100.00,ENE,70,2.0,8.0,54,0.00,,,-99.99,,2013-04-15 16:44:00,
2013-04-15 12:53:00,64.0,46.0,-100.00,East,81,1.0,8.0,54,0.00,,,-99.99,,2013-04-15 16:53:00,
2013-04-15 13:04:00,64.0,45.0,-100.00,East,83,3.0,8.0,51,0.00,,,-99.99,,2013-04-15 17:04:00,
2013-04-15 13:15:00,67.0,46.0,-100.00,ENE,70,3.0,8.0,49,0.00,,,-99.99,,2013-04-15 17:15:00,
2013-04-15 13:22:00,66.0,45.0,-100.00,ENE,77,4.0,8.0,49,0.00,,,-99.99,,2013-04-15 17:22:00,
2013-04-15 13:33:00,65.0,45.0,-100.00,East,79,2.0,8.0,50,0.00,,,-99.99,,2013-04-15 17:33:00,
2013-04-15 13:43:00,66.0,46.0,-100.00,ENE,70,3.0,8.0,50,0.00,,,-99.99,,2013-04-15 17:43:00,
2013-04-15 13:52:00,66.0,45.0,-100.00,ENE,70,6.0,8.0,49,0.00,,,-99.99,,2013-04-15 17:52:00,
2013-04-15 14:03:00,65.0,45.0,-100.00,ENE,62,4.0,8.0,50,0.00,,,-99.99,,2013-04-15 18:03:00,
2013-04-15 14:13:00,66.0,48.0,-100.00,East,81,3.0,8.0,54,0.00,,,-99.99,,2013-04-15 18:13:00,
2013-04-15 14:24:00,64.0,46.0,-100.00,ENE,70,4.0,8.0,54,0.00,,,-99.99,,2013-04-15 18:24:00,
2013-04-15 14:33:00,64.0,46.0,-100.00,ENE,60,3.0,8.0,55,0.00,,,-99.99,,2013-04-15 18:33:00,
2013-04-15 14:42:00,65.0,45.0,-100.00,East,81,2.0,8.0,50,0.00,,,-99.99,,2013-04-15 18:42:00,
2013-04-15 14:52:00,66.0,46.0,-100.00,ENE,62,6.0,12.0,51,0.00,,,-99.99,,2013-04-15 18:52:00,
2013-04-15 15:02:00,66.0,46.0,-100.00,ENE,72,4.0,12.0,50,0.00,,,-99.99,,2013-04-15 19:02:00,
2013-04-15 15:12:00,66.0,46.0,-100.00,East,81,3.0,12.0,50,0.00,,,-99.99,,2013-04-15 19:12:00,
2013-04-15 15:22:00,68.0,45.0,-100.00,ENE,74,2.0,12.0,46,0.00,,,-99.99,,2013-04-15 19:22:00,
2013-04-15 15:56:00,69.0,46.0,-100.00,ENE,70,3.0,12.0,46,0.00,,,-99.99,,2013-04-15 19:56:00,
2013-04-15 15:59:00,68.0,45.0,-100.00,East,79,3.0,12.0,46,0.00,,,-99.99,,2013-04-15 19:59:00,
2013-04-15 16:02:00,69.0,48.0,-100.00,ENE,70,1.0,12.0,50,0.00,,,-99.99,,2013-04-15 20:02:00,
2013-04-15 16:12:00,66.0,46.0,-100.00,ENE,62,2.0,12.0,49,0.00,,,-99.99,,2013-04-15 20:12:00,
2013-04-15 16:22:00,69.0,48.0,-100.00,ENE,73,2.0,12.0,50,0.00,,,-99.99,,2013-04-15 20:22:00,
2013-04-15 16:32:00,66.0,45.0,-100.00,East,81,3.0,12.0,49,0.00,,,-99.99,,2013-04-15 20:32:00,
2013-04-15 16:42:00,67.0,46.0,-100.00,ENE,70,1.0,12.0,49,0.00,,,-99.99,,2013-04-15 20:42:00,
2013-04-15 16:52:00,67.0,45.0,-100.00,ENE,70,2.0,12.0,47,0.00,,,-99.99,,2013-04-15 20:52:00,
2013-04-15 17:02:00,66.0,46.0,-100.00,ENE,70,2.0,12.0,49,0.00,,,-99.99,,2013-04-15 21:02:00,
2013-04-15 17:12:00,70.0,50.0,-100.00,ENE,60,1.0,12.0,50,0.00,,,-99.99,,2013-04-15 21:12:00,
2013-04-15 17:22:00,69.0,46.0,-100.00,ENE,72,2.0,12.0,46,0.00,,,-99.99,,2013-04-15 21:22:00,
2013-04-15 17:33:00,67.0,46.0,-100.00,East,81,2.0,12.0,47,0.00,,,-99.99,,2013-04-15 21:33:00,
2013-04-15 17:43:00,69.0,46.0,-100.00,ENE,62,2.0,12.0,47,0.00,,,-99.99,,2013-04-15 21:43:00,
2013-04-15 17:53:00,70.0,50.0,-100.00,East,81,1.0,12.0,50,0.00,,,-99.99,,2013-04-15 21:53:00,
2013-04-15 18:02:00,68.0,48.0,-100.00,ENE,70,2.0,12.0,51,0.00,,,-99.99,,2013-04-15 22:02:00,
2013-04-15 18:13:00,68.0,48.0,-100.00,ENE,62,3.0,12.0,51,0.00,,,-99.99,,2013-04-15 22:13:00,
2013-04-15 18:23:00,67.0,46.0,-100.00,ENE,64,1.0,12.0,50,0.00,,,-99.99,,2013-04-15 22:23:00,
2013-04-15 18:33:00,68.0,50.0,-100.00,East,79,2.0,12.0,54,0.00,,,-99.99,,2013-04-15 22:33:00,
2013-04-15 18:42:00,69.0,50.0,-100.00,East,81,4.0,12.0,54,0.00,,,-99.99,,2013-04-15 22:42:00,
2013-04-15 18:52:00,67.0,46.0,-100.00,ENE,62,2.0,12.0,51,0.00,,,-99.99,,2013-04-15 22:52:00,
2013-04-15 19:02:00,68.0,50.0,-100.00,ENE,60,3.0,12.0,54,0.00,,,-99.99,,2013-04-15 23:02:00,
2013-04-15 19:12:00,68.0,50.0,-100.00,ENE,62,4.0,12.0,54,0.00,,,-99.99,,2013-04-15 23:12:00,
2013-04-15 19:22:00,68.0,50.0,-100.00,ENE,60,2.0,12.0,53,0.00,,,-99.99,,2013-04-15 23:22:00,
2013-04-15 19:32:00,67.0,48.0,-100.00,ENE,72,1.0,12.0,51,0.00,,,-99.99,,2013-04-15 23:32:00,
2013-04-15 19:42:00,66.0,46.0,-100.00,ENE,70,1.0,12.0,51,0.00,,,-99.99,,2013-04-15 23:42:00,
2013-04-15 19:52:00,67.0,46.0,-100.00,East,81,1.0,12.0,50,0.00,,,-99.99,,2013-04-15 23:52:00,
2013-04-15 20:02:00,69.0,50.0,-100.00,East,80,1.0,12.0,51,0.00,,,-99.99,,2013-04-16 00:02:00,
2013-04-15 20:12:00,67.0,50.0,-100.00,East,81,1.0,12.0,54,0.00,,,-99.99,,2013-04-16 00:12:00,
2013-04-15 20:22:00,68.0,50.0,-100.00,ENE,60,1.0,12.0,54,0.00,,,-99.99,,2013-04-16 00:22:00,
2013-04-15 20:32:00,68.0,50.0,-100.00,ENE,62,0.0,12.0,55,0.00,,,-99.99,,2013-04-16 00:32:00,
2013-04-15 20:42:00,68.0,50.0,-100.00,East,80,1.0,12.0,55,0.00,,,-99.99,,2013-04-16 00:42:00,
2013-04-15 20:52:00,67.0,50.0,-100.00,ENE,62,2.0,12.0,56,0.00,,,-99.99,,2013-04-16 00:52:00,
2013-04-15 21:02:00,67.0,50.0,-100.00,ENE,62,3.0,12.0,56,0.00,,,-99.99,,2013-04-16 01:02:00,
2013-04-15 21:12:00,66.0,48.0,-100.00,ENE,72,4.0,12.0,56,0.00,,,-99.99,,2013-04-16 01:12:00,
2013-04-15 21:22:00,66.0,48.0,-100.00,ENE,63,4.0,12.0,56,0.00,,,-99.99,,2013-04-16 01:22:00,
2013-04-15 21:32:00,65.0,50.0,-100.00,ENE,73,4.0,12.0,58,0.00,,,-99.99,,2013-04-16 01:32:00,
2013-04-15 21:42:00,65.0,50.0,-100.00,ENE,72,4.0,12.0,58,0.00,,,-99.99,,2013-04-16 01:42:00,
2013-04-15 21:52:00,65.0,50.0,-100.00,ENE,72,6.0,12.0,59,0.00,,,-99.99,,2013-04-16 01:52:00,
2013-04-15 22:02:00,65.0,50.0,-100.00,ENE,72,6.0,12.0,59,0.00,,,-99.99,,2013-04-16 02:02:00,
2013-04-15 22:12:00,62.0,46.0,-100.00,ENE,62,4.0,12.0,59,0.00,,,-99.99,,2013-04-16 02:12:00,
2013-04-15 22:22:00,62.0,46.0,-100.00,ENE,72,5.0,12.0,60,0.00,,,-99.99,,2013-04-16 02:22:00,
2013-04-15 22:32:00,62.0,46.0,-100.00,ENE,67,6.0,12.0,59,0.00,,,-99.99,,2013-04-16 02:32:00,
2013-04-15 22:42:00,62.0,46.0,-100.00,ENE,63,5.0,12.0,59,0.00,,,-99.99,,2013-04-16 02:42:00,
2013-04-15 22:52:00,62.0,46.0,-100.00,ENE,70,4.0,12.0,59,0.00,,,-99.99,,2013-04-16 02:52:00,
2013-04-15 23:02:00,61.0,45.0,-100.00,ENE,70,4.0,12.0,59,0.00,,,-99.99,,2013-04-16 03:02:00,
2013-04-15 23:12:00,61.0,46.0,-100.00,East,80,4.0,12.0,59,0.00,,,-99.99,,2013-04-16 03:12:00,
2013-04-15 23:22:00,61.0,46.0,-100.00,ENE,70,4.0,12.0,60,0.00,,,-99.99,,2013-04-16 03:22:00,
2013-04-15 23:33:00,61.0,46.0,-100.00,ENE,72,4.0,12.0,60,0.00,,,-99.99,,2013-04-16 03:33:00,
2013-04-15 23:43:00,60.0,45.0,-100.00,East,81,3.0,12.0,60,0.00,,,-99.99,,2013-04-16 03:43:00,
2013-04-15 23:52:00,60.0,46.0,-100.00,East,81,2.0,12.0,62,0.00,,,-99.99,,2013-04-16 03:52:00,